Regional Weather Roundup
Issued by NWS

Home | Current Version | Previous Version | Graphics & Text | Print | Product List | Glossary On
Versions: 1 2 3 4 5 6 7 8 9 10 11 12 13 14 15 16 17 18 19 20 21 22 23 24 25 26 27 28 29 30 31 32 33 34 35 36 37 38 39 40 41 42 43 44 45 46 47 48 49 50
000
ASUS43 KLMK 280310
RWRKY
KENTUCKY REGIONAL WEATHER ROUNDUP
NATIONAL WEATHER SERVICE LOUISVILLE KY
1000 PM EST TUE JAN 27 2015

NOTE "FAIR" INDICATES FEW OR NO CLOUDS BELOW 12,000 FEET
WITH NO SIGNIFICANT WEATHER AND/OR OBSTRUCTIONS TO VISIBILITY.

KYZ001>023-026-027-061>063-070>075-280400-
WESTERN AND SOUTH CENTRAL KENTUCKY

CITY           SKY/WX    TMP DP  RH WIND       PRES   REMARKS
PADUCAH        CLEAR     33  27  78 NE6       30.23R WCI  28
HENDERSON      CLOUDY    34  27  75 NE7       30.25S WCI  28
OWENSBORO      CLOUDY    33  30  89 CALM      30.25S
HOPKINSVILLE   CLOUDY    35  29  78 N8        30.23R WCI  28
BOWLING GREEN  CLOUDY    34  29  82 W5        30.23S WCI  30
GLASGOW        CLOUDY    32  28  86 N6        30.22R WCI  26
$$

KYZ024-025-028>034-038-045-046-053-280400-
NORTH CENTRAL KENTUCKY

CITY           SKY/WX    TMP DP  RH WIND       PRES   REMARKS
LOUISVILLE/SDF CLEAR     27  14  58 N6        30.25R WCI  20
LOUISVILLE/LOU CLEAR     28  13  53 N3        30.26R
FORT KNOX      CLOUDY    30  23  74 N7        30.22R WCI  24
$$

KYZ035>037-039>044-047>052-055>060-089>105-280400-
NORTHEAST KENTUCKY

CITY           SKY/WX    TMP DP  RH WIND       PRES   REMARKS
LEXINGTON      CLEAR     23  13  65 N8        30.22R WCI  14
COVINGTON      CLEAR     21  12  68 N10       30.23R WCI  10
FRANKFORT      CLEAR     25  13  60 N6        30.22R WCI  18
$$

KYZ054-064>069-076>088-106>120-280400-
SOUTHEAST KENTUCKY

CITY           SKY/WX    TMP DP  RH WIND       PRES   REMARKS
JACKSON        CLEAR     23  11  60 NE3       30.16R
LONDON         CLEAR     28  14  55 N5        30.17R WCI  23
SOMERSET       CLEAR     28  21  74 N6        30.22R WCI  22
MIDDLESBORO    MOCLDY    30  22  71 N6        30.17R WCI  24
MONTICELLO     CLOUDY    31  25  78 N8        30.23R WCI  24
$$




USA.gov is the U.S. government's official web portal to all federal, state and local government web resources and services.